Location: ???????
(38.0133°N, 23.8560°E)
Time: 19:25:04
(UTC+00:00)

Daily predictions for brighter satellites

Satellite Brightness Start Highest point End
(mag) Time Altitude Azimuth Time Altitude Azimuth Time Altitude Azimuth
BREEZE-M DEB (TANK) 4.5 16:24:14 10° NW 16:28:26 44° NNE 16:43:43 10° ESE
CZ-4 R/B 2.4 16:31:37 10° SE 16:34:44 24° ENE 16:37:52 10° NNE
Cosmos 2154 Rocket 4.4 16:30:41 10° SSE 16:36:32 41° E 16:42:23 10° NNE
SJ-11-01 4.4 16:33:35 10° SSE 16:38:06 52° ENE 16:42:38 10° N
CZ-4C R/B 3.0 16:34:42 10° NNE 16:38:19 88° ESE 16:41:52 10° SSW
Cosmos 1461 2.8 16:35:15 10° NNW 16:39:13 83° WSW 16:43:06 10° SSE
H-2A R/B 2.1 16:36:18 10° SSE 16:41:19 89° WSW 16:46:32 10° NNW
Cosmos 2221 Rocket 4.5 16:40:44 10° NNW 16:45:02 55° W 16:49:20 10° S
Okean 2 3.3 16:41:12 10° N 16:45:17 77° E 16:49:22 10° S
ARGOS 3.2 16:41:04 10° SSE 16:46:18 61° ENE 16:51:36 10° N
BREEZE-M DEB (TANK) 3.1 16:47:00 10° NNW 16:48:38 22° NNE 16:50:14 11° E
ATLAS 3B CENTAUR R/B 3.2 16:46:59 10° WSW 16:51:07 21° SSW 16:53:47 10° SE
Nadezhda 3 Rocket 4.3 16:46:28 10° N 16:52:16 41° ENE 16:58:03 10° SSE
Atlas Centaur 2 3.6 16:45:54 10° WSW 16:53:33 50° S 17:01:19 12° ESE
IRAS Rocket 4.3 16:49:54 10° NNE 16:55:33 88° WNW 17:01:08 10° SSW
Cosmos 1943 Rocket 3.2 16:50:14 10° SW 16:55:37 49° WNW 17:01:04 10° NNE
Geosat 4.3 16:53:55 10° NE 16:58:43 44° ESE 17:03:29 10° S
Cosmos 2082 Rocket 4.4 16:56:42 10° NW 17:01:32 29° WSW 17:06:20 10° SSW
Cosmos 1975 Rocket 4.0 16:59:11 10° NNE 17:03:04 29° ENE 17:06:56 10° SE
IRS-1C Rocket 4.4 16:58:48 10° SE 17:03:45 44° ENE 17:08:44 10° N
Cosmos 1777 Rocket 4.0 17:00:55 10° SSW 17:06:10 83° ESE 17:11:25 10° NNE
Cosmos 1346 Rocket 3.3 17:04:10 10° N 17:07:56 37° ENE 17:11:40 10° SE
CZ-2C R/B 3.3 17:04:10 10° N 17:09:40 64° WNW 17:15:12 10° SSW
SL-08 RB Rocket 3.6 17:05:34 10° SSE 17:09:59 73° ENE 17:14:28 10° N
Cosmos 2074 Rocket 4.4 17:05:01 10° SSW 17:11:13 69° W 17:17:30 10° N
Okean-O 3.1 17:07:19 10° SE 17:11:25 39° ENE 17:15:32 10° N
Meteor 1-12 Rocket 4.4 17:07:32 10° S 17:13:27 63° E 17:19:21 10° NNE
SeaSat 1 4.2 17:13:32 13° ENE 17:14:50 14° NE 17:17:18 10° NNE
Cosmos 1908 Rocket 4.4 17:13:13 10° SSW 17:17:36 56° W 17:22:00 10° N
Cosmos 2369 Rocket 2.5 17:13:29 10° SSW 17:19:07 70° WNW 17:24:46 10° NNE
CZ-4B R/B 1.3 17:19:43 10° NNE 17:22:46 50° E 17:25:52 10° S
CSL-04 Debris 4.3 17:21:47 10° SE 17:26:58 51° ENE 17:32:10 10° N
ASTRO E2 3.9 17:24:01 10° SW 17:27:27 28° S 17:28:46 23° SE
Cosmos 1656 Rocket 3.7 17:24:00 10° SSW 17:29:35 83° WNW 17:35:08 10° NNE
Cosmos 1674 2.7 17:27:00 10° N 17:30:44 78° W 17:34:27 10° S
Cosmos 2341 Rocket 4.1 17:24:41 10° SSE 17:30:48 54° E 17:36:59 10° NNE
SJ 16-02 1.6 17:26:36 10° SSW 17:31:00 71° WNW 17:35:26 10° NNE
YAOGAN 1 2.9 17:26:47 10° S 17:31:05 69° WSW 17:35:24 10° NNW
COSMOS 2455 4.0 17:28:52 10° NW 17:34:33 43° WSW 17:40:11 10° S
Cosmos 1626 2.0 17:31:02 10° N 17:34:43 69° E 17:37:23 18° SSE
Cosmos 773 Rocket 4.3 17:29:54 10° NNW 17:35:09 71° WSW 17:40:24 10° S
Cosmos 2218 Rocket 4.3 17:31:51 10° SSE 17:37:28 39° E 17:43:08 10° NNE
NOSS 3-2 (C) 3.6 17:32:42 10° S 17:37:36 37° ESE 17:42:05 14° NE
Okean O Rocket 4.2 17:34:22 10° SSW 17:37:46 22° W 17:41:10 10° NW
CENTAUR R/B 2.4 17:35:07 10° SSW 17:40:30 56° ESE 17:46:54 10° NE
Gbstr 26 Del rocket 4.3 17:35:59 10° SW 17:42:55 68° SE 17:50:00 14° NE
Meteor 2-10 4.4 17:37:44 10° SSE 17:43:04 44° E 17:48:15 10° NNE
USA 215 4.1 17:39:55 23° ENE 17:43:05 36° NNE 17:48:56 10° NNW
MetOp-A 4.0 17:39:24 10° SSE 17:44:44 74° ENE 17:50:05 10° N
Lacrosse 5 rocket 2.4 17:40:44 10° NW 17:45:03 46° SW 17:47:52 19° SSE
PSLV R/B 3.8 17:41:00 10° NNE 17:45:06 68° ESE 17:49:09 10° S
USA 186 3.6 17:47:36 19° NNE 17:47:36 19° NNE 17:48:43 10° N
Cosmos 1805 3.9 17:43:36 10° SSW 17:47:25 57° W 17:51:15 10° N
Cosmos 962 Rocket 4.4 17:46:36 10° S 17:52:48 86° W 17:58:59 10° N
Cosmos 990 Rocket 4.0 17:48:07 10° S 17:53:05 52° ESE 17:58:06 10° NNE
OBJECT-B 2.5 17:56:56 23° N 17:56:56 23° N 17:58:19 10° N
Cosmos 1315 Rocket 3.5 17:52:42 10° SSW 17:56:35 55° W 18:00:34 10° N
SL-14 R/B 3.1 17:53:13 10° N 17:57:10 72° E 17:57:15 72° E
Cosmos 1184 Rocket 3.5 17:56:12 10° NNW 17:59:18 49° W 17:59:58 40° SW
SJ-6B 3.5 18:00:27 42° NE 18:00:27 42° NE 18:03:36 10° N
CZ-3 Stage 3 3.7 17:35:55 10° WSW 18:00:07 51° S 18:02:20 35° SE
Okean 2 Rocket 2.9 18:01:07 64° ESE 18:01:24 66° E 18:05:46 10° NNE
ATLAS CENTAUR R/B 4.1 17:58:20 10° WNW 18:01:54 21° WSW 18:05:31 10° SSW
Cosmos 1733 4.5 17:58:52 10° SSW 18:02:27 40° W 18:06:04 10° N
Ariane Rocket 4.3 18:05:13 24° NE 18:05:13 24° NE 18:08:03 10° N
H-2A R/B 4.4 18:02:44 10° NNW 18:06:04 24° WNW 18:09:22 10° WSW
USA 238 DEB 3.4 18:01:44 10° SSW 18:08:09 82° ESE 18:14:55 10° NE
USA 238 3.4 18:01:51 10° SSW 18:08:16 81° ESE 18:15:00 10° NE
CZ-4 R/B 3.9 18:06:48 10° SW 18:09:39 20° W 18:12:32 10° NW
CSL-04 Rocket 3.8 18:06:18 16° S 18:10:33 71° WSW 18:16:00 10° NNW
NOSS 3-2 (A) 3.8 18:10:42 10° SW 18:16:03 59° NW 18:22:10 10° NNE
Sich 1 Rocket 4.2 18:12:28 10° SSW 18:16:56 56° W 18:21:23 10° N
Cosmos 1025 Rocket 3.2 18:13:04 10° NNW 18:17:22 67° W 18:17:55 59° SW
Meteor 1-22 Rocket 4.1 18:12:39 10° S 18:18:12 88° E 18:24:01 10° N
Meteor 2-20 Rocket 4.3 18:12:07 10° N 18:18:12 65° E 18:18:54 60° ESE
Cosmos 158 Rocket 4.0 18:14:16 10° NNW 18:19:13 71° WSW 18:20:13 54° SSW
ISS -0.7 18:21:36 10° N 18:21:46 10° N 18:21:46 10° N
SL-8 Rocket 4.2 18:17:07 10° SSW 18:23:22 72° W 18:29:42 10° N
Meteor 2-5 Rocket 3.7 18:27:36 10° NNW 18:33:10 76° W 18:34:08 60° SSW
FALCON 9 R/B 4.3 17:04:57 10° WSW 18:41:31 61° SSW 18:47:14 43° SE
Atlas Centaur 2 3.6 18:35:06 10° W 18:42:56 43° SSW 18:43:53 42° S
NOSS 3-3 (A) 4.5 18:37:36 10° NNW 18:45:23 77° ENE 18:46:24 68° ESE
NOSS 3-3 (C) 4.5 18:37:42 10° NNW 18:45:28 76° ENE 18:46:29 68° ESE
Cosmos 2297 Rocket 4.2 18:42:38 10° N 18:44:16 16° NNE 18:44:16 16° NNE
Cosmos 1727 Rocket 4.1 18:43:11 10° N 18:48:27 63° NNE 18:48:27 63° NNE
SeaSat 1 3.4 18:53:20 43° NNW 18:53:20 43° NNW 18:56:39 10° NNW
Resurs 01 Rocket 4.3 19:06:47 14° N 19:06:47 14° N 19:07:21 10° N
Cosmos 2227 Rocket 4.4 19:05:21 10° N 19:06:29 14° NNE 19:06:29 14° NNE
USA 215 3.8 19:27:17 54° WNW 19:27:17 54° WNW 19:32:19 10° NW
CENTAUR R/B 4.3 19:26:36 10° W 19:31:37 27° NW 19:37:25 10° NNE
CZ-3 Stage 3 3.9 19:18:26 10° W 19:33:33 44° SW 19:33:33 44° SW
